Location: Mount Lemmon
(32.4432°N, 110.7577°W)
Time: 06:25:24
(UTC-07:00)

Envisat - Visible Passes

Search period start: 25 September 2017 00:00
Search period end: 05 October 2017 00:00
Orbit: 764 x 766 km, 98.2° (Epoch: 25 September)

Date Brightness Start Highest point End Pass type
(mag) Time Alt. Az. Time Alt. Az. Time Alt. Az.
25 Sep 4.7 19:01:14 13° E 19:02:23 14° ENE 19:04:48 10° NE visible
25 Sep 3.6 20:41:26 53° WNW 20:41:26 53° WNW 20:45:51 10° NNW visible
26 Sep 3.0 20:04:28 58° ENE 20:04:28 58° ENE 20:09:10 10° N visible
26 Sep 5.9 21:44:41 11° WNW 21:44:41 11° WNW 21:45:25 10° WNW visible
27 Sep 4.0 19:27:29 25° ENE 19:27:43 25° ENE 19:31:46 10° NNE visible
27 Sep 4.8 21:07:42 27° WNW 21:07:42 27° WNW 21:10:58 10° NW visible
28 Sep 4.9 18:50:46 10° ENE 18:51:26 10° ENE 18:52:05 10° ENE visible
28 Sep 3.4 20:30:44 57° NW 20:30:44 57° NW 20:34:49 10° NNW visible
29 Sep 3.4 19:53:45 43° NE 19:53:45 43° NE 19:57:57 10° N visible
29 Sep 5.7 21:33:58 14° WNW 21:33:58 14° WNW 21:35:22 10° NW visible
30 Sep 4.3 19:16:47 19° ENE 19:16:47 19° ENE 19:20:15 10° NNE visible
30 Sep 4.6 20:57:00 31° WNW 20:57:00 31° WNW 21:00:07 10° NNW visible
01 Oct 3.5 20:20:01 50° N 20:20:01 50° N 20:23:44 10° N visible
02 Oct 3.8 19:43:03 32° NE 19:43:03 32° NE 19:46:39 10° N visible
02 Oct 5.6 21:23:16 16° WNW 21:23:16 16° WNW 21:24:54 10° NW visible
03 Oct 4.6 19:06:04 15° ENE 19:06:04 15° ENE 19:08:32 10° NNE visible
03 Oct 4.5 20:46:17 32° NW 20:46:17 32° NW 20:49:12 10° NNW visible
04 Oct 3.8 20:09:19 40° N 20:09:19 40° N 20:12:36 10° N visible
